EB1DWF Weather Reports


time (UTC)temp
C
wind
direction
speed
KPH
gust
KPH
rain 1hr
cm
rain 24hr
cm
rain mn
cm
humidity
%
barometer
mb
20260504060216 9 360 0.0 1.6 0.00 5.18 0.00 100 1004.5
20260504050217 8 90 0.0 1.6 0.00 5.18 0.00 100 1004.1
20260504045613 8 315 0.0 1.6 0.00 5.18 0.00 100 1004.3
20260504044716 8 334 0.0 1.6 0.00 5.18 0.00 100 1004.2
20260504043603 8 65 0.0 1.6 0.00 5.18 0.00 100 1004.3
20260504042703 8 75 0.0 1.6 0.00 5.18 0.00 100 1004.2
20260504042018 8 0 0.0 0.0 0.00 5.18 0.00 100 1004.3
20260504041115 8 90 0.0 1.6 0.00 5.18 0.00 100 1004.3
20260504040217 8 90 0.0 1.6 0.00 5.18 0.00 100 1004.2
20260504035614 8 0 0.0 0.0 0.00 5.18 0.00 100 1004.3
20260504034716 8 157 0.0 1.6 0.00 5.18 0.00 100 1004.3
20260504033603 8 0 0.0 0.0 0.00 5.18 0.00 100 1004.3
20260504032703 8 138 0.0 1.6 0.00 5.18 0.00 100 1004.4
20260504032013 8 131 0.0 1.6 0.00 5.18 0.00 100 1004.5
20260504031116 8 130 0.0 3.2 0.00 5.18 0.00 100 1004.4
20260504030003 8 0 0.0 0.0 0.00 5.18 0.00 100 1004.4
20260504025403 8 0 0.0 0.0 0.00 5.18 0.00 100 1004.3
20260504024503 8 24 0.0 1.6 0.00 5.18 0.00 100 1004.4
20260504023603 8 360 0.0 1.6 0.00 5.18 0.00 100 1004.4
20260504022916 8 0 0.0 0.0 0.00 5.18 0.00 100 1004.4
20260504022014 8 346 0.0 1.6 0.00 5.18 0.00 100 1004.4
20260504020903 8 37 0.0 1.6 0.00 5.18 0.00 100 1004.4
20260504020003 8 9 0.0 4.8 0.00 5.18 0.00 100 1004.5
20260504015615 8 2 0.0 4.8 0.00 5.18 0.00 100 1004.4
20260504014717 8 5 0.0 4.8 0.00 5.18 0.00 100 1004.4
20260504013603 8 315 0.0 1.6 0.00 5.18 0.00 100 1004.3
20260504012917 8 326 0.0 3.2 0.00 5.18 0.00 100 1004.4
20260504011803 8 344 0.0 6.4 0.00 5.18 0.00 100 1004.4
20260504011117 8 344 1.6 6.4 0.00 5.18 0.00 100 1004.5
20260504010214 8 3 3.2 6.4 0.00 5.18 0.00 100 1004.5
20260504005616 8 15 1.6 6.4 0.00 5.18 0.00 100 1004.5
20260504004713 8 360 3.2 6.4 0.00 5.18 0.00 100 1004.5
20260504003604 8 1 1.6 4.8 0.00 5.18 0.00 100 1004.5
20260504002703 8 346 0.0 1.6 0.00 5.18 0.00 100 1004.5
20260504002015 8 345 0.0 1.6 0.00 5.18 0.00 100 1004.6
20260504000903 8 359 0.0 6.4 0.00 5.18 0.00 100 1004.6
20260504000003 8 8 3.2 6.4 0.00 5.18 0.00 100 1004.7
20260503235616 8 17 0.0 6.4 0.00 5.18 0.00 100 1004.6
20260503234714 8 8 0.0 4.8 0.00 5.18 0.00 100 1004.6
20260503233603 9 298 0.0 4.8 0.00 5.18 0.00 100 1004.5
20260503232703 9 334 0.0 6.4 0.00 5.18 0.00 100 1004.5
20260503231803 10 231 0.0 1.6 0.00 5.18 0.00 97 1004.4
20260503231113 10 0 0.0 0.0 0.00 5.18 0.00 97 1004.3
20260503230004 10 45 0.0 1.6 0.00 5.18 0.00 97 1004.4
20260503225617 10 0 0.0 0.0 0.00 5.18 0.00 96 1004.4
20260503224714 10 0 0.0 0.0 0.00 5.18 0.00 96 1004.4
20260503223817 10 0 0.0 0.0 0.00 5.18 0.00 96 1004.5
20260503222703 10 279 0.0 3.2 0.00 5.18 0.00 96 1004.5
20260503222016 10 277 0.0 4.8 0.00 5.18 0.00 95 1004.5
20260503221114 10 10 3.2 4.8 0.00 5.18 0.00 94 1004.5
20260503220004 11 68 3.2 4.8 0.00 5.18 0.00 92 1004.6
20260503215403 11 283 0.0 3.2 0.00 5.18 0.00 91 1004.6
20260503214715 11 270 0.0 6.4 0.00 5.18 0.00 91 1004.6
20260503213603 11 154 0.0 4.8 0.00 5.18 0.00 92 1004.5
20260503212703 11 282 0.0 4.8 0.00 5.18 0.00 92 1004.5
20260503211803 11 283 0.0 6.4 0.00 5.18 0.00 91 1004.5
20260503210903 11 293 0.0 4.8 0.00 5.18 0.00 91 1004.5
20260503210003 11 305 0.0 3.2 0.00 5.18 0.00 91 1004.5
20260503205613 11 306 0.0 1.6 0.00 5.18 0.00 91 1004.3
20260503204716 11 350 0.0 1.6 0.00 5.18 0.00 91 1004.3
20260503203813 11 306 0.0 3.2 0.00 5.18 0.00 92 1004.1
20260503202915 11 270 0.0 4.8 0.00 5.18 0.00 93 1004.1
20260503201803 11 294 0.0 6.4 0.00 5.18 0.00 94 1003.9
20260503201115 11 16 0.0 6.4 0.00 5.18 0.00 93 1003.9
20260503200003 11 313 1.6 6.4 0.00 5.18 0.00 93 1003.9
20260503195404 11 290 0.0 3.2 0.00 5.18 0.00 92 1003.7
20260503194504 11 44 0.0 6.4 0.00 5.18 0.00 91 1003.5
20260503193813 11 35 3.2 6.4 0.00 5.18 0.00 90 1003.6
20260503192703 12 74 6.4 11.3 0.00 5.18 0.00 87 1003.3
20260503191803 12 215 6.4 9.7 0.00 5.18 0.00 84 1003.4
20260503191116 12 264 3.2 12.9 0.00 5.18 0.00 82 1003.2
20260503190213 13 238 6.4 12.9 0.00 5.18 0.00 81 1003.0
20260503185614 13 91 3.2 11.3 0.00 5.18 0.00 80 1002.9
20260503184717 13 147 4.8 11.3 0.00 5.18 0.00 80 1002.9
20260503183814 14 155 6.4 12.9 0.00 5.18 0.00 79 1002.7
20260503182917 14 130 6.4 12.9 0.00 5.18 0.00 79 1002.6
20260503182014 14 319 4.8 12.9 0.00 5.18 0.00 79 1002.7
20260503180903 15 158 4.8 6.4 0.00 5.18 0.00 78 1002.7
20260503180213 15 30 3.2 6.4 0.00 5.18 0.00 78 1002.9
20260503175403 14 133 6.4 12.9 0.00 5.18 0.00 78 1002.9
20260503174717 15 112 3.2 8.0 0.00 5.18 0.00 78 1002.8
20260503173815 14 113 0.0 8.0 0.00 5.18 0.00 77 1002.8
20260503172917 14 316 1.6 6.4 0.00 5.18 0.00 80 1002.8
20260503171804 15 97 6.4 12.9 0.00 5.18 0.00 79 1002.7
20260503170904 15 13 6.4 9.7 0.00 5.18 0.00 75 1002.5
20260503140216 14 4 3.2 12.9 5.18 5.18 0.00 79 1002.7
20260503130903 20 12 0.0 9.7 0.00 0.00 0.00 65 1002.1
20260503130217 18 345 3.2 9.7 0.00 0.00 0.00 67 1002.2
20260503110213 21 144 0.0 12.9 0.00 0.00 0.00 49 1003.3
20260503100213 18 67 4.8 8.0 0.00 0.00 0.00 62 1003.4
20260503080903 13 45 0.0 8.0 0.00 0.00 0.00 84 1004.1